Monarch Pass, CO

1:34 AM MDT on May 23, 2018 (GMT -0600)
Monarch Pass

Weather History for KMYP - December, 2011

Change the Weather History Date:

Friday, December 16, 2011

  Actual Average (KALS) Record (KALS)
Temperature  
Mean Temperature 14 °F -  
Max Temperature 19 °F 33 °F 55 °F (1980)
Min Temperature 8 °F -2 °F -27 °F (1940)
Degree Days  
Heating Degree Days 52    
Moisture  
Dew Point 6 °F    
Average Humidity 70    
Maximum Humidity 85    
Minimum Humidity 42    
Precipitation  
Precipitation 0.00 in - - ()
Sea Level Pressure  
Sea Level Pressure 30.36 in    
Wind  
Wind Speed 19 mph (WSW)    
Max Wind Speed 43 mph    
Max Gust Speed 29 mph    
Visibility 9 miles    
Events Fog , Snow    
Averages and records for this station are not official NWS values.
T = Trace of Precipitation, MM = Missing Value Source: NWS Daily Summary

Daily Weather History Graph

Daily Weather History Graph

Search for Another Location

Airport or City:

Astronomy

Dec. 16, 2011 Rise Set
Actual Time 7:14 AM MST 4:45 PM MST
Civil Twilight 6:45 AM MST 5:15 PM MST
Nautical Twilight 6:12 AM MST 5:48 PM MST
Astronomical Twilight 5:39 AM MST 6:20 PM MST
Moon 11:17 PM MST (12/16) 11:06 AM MST (12/16)
Length of Visible Light 10h 30m
Length of Day
9h 30m
Waning Gibbous, 64% of the Moon is Illuminated
Dec 16
Waning Gibbous
Dec 17
Last Quarter
Dec 24
New
Dec 31
First Quarter
Jan 9
Full

Hourly Weather History & Observations

Time (MST) Temp. Windchill Dew Point Humidity Pressure Visibility Wind Dir Wind Speed Gust Speed Precip Events Conditions
12:04 AM 8.6 °F - 5.0 °F 85% 30.26 in 1.2 mi North - - N/A   Mist
12:24 AM 8.6 °F - 5.0 °F 85% 30.26 in 0.5 mi North - - N/A Fog Light Freezing Fog
12:44 AM 8.6 °F - 5.0 °F 85% 30.26 in 0.5 mi North - - N/A Fog Light Freezing Fog
1:04 AM 8.6 °F - 5.0 °F 85% 30.26 in 1.0 mi North - - N/A   Overcast
1:24 AM 10.4 °F - 5.0 °F 79% 30.26 in 1.5 mi North - - N/A   Scattered Clouds
1:44 AM 8.6 °F - 5.0 °F 85% 30.27 in 10.0 mi North - - N/A   Scattered Clouds
2:04 AM 10.4 °F - 6.8 °F 85% 30.27 in 7.0 mi North - - N/A   Scattered Clouds
2:24 AM 10.4 °F - 5.0 °F 79% 30.27 in 10.0 mi North - - N/A   Clear
2:44 AM 10.4 °F - 5.0 °F 79% 30.28 in 7.0 mi North - - N/A   Clear
3:04 AM 8.6 °F - 5.0 °F 85% 30.28 in 3.0 mi North - - N/A   Clear
3:24 AM 8.6 °F - 5.0 °F 85% 30.28 in 1.0 mi North - - N/A Snow Light Snow
3:44 AM 8.6 °F - 5.0 °F 85% 30.29 in 2.0 mi North - - N/A Snow Light Snow
4:04 AM 8.6 °F - 5.0 °F 85% 30.28 in 10.0 mi North - - N/A   Clear
4:24 AM 8.6 °F - 5.0 °F 85% 30.28 in 10.0 mi North - - N/A   Clear
4:44 AM 8.6 °F - 5.0 °F 85% 30.29 in 10.0 mi North - - N/A   Clear
5:04 AM 10.4 °F - 6.8 °F 85% 30.29 in 10.0 mi North - - N/A   Clear
5:24 AM 10.4 °F - 6.8 °F 85% 30.30 in 10.0 mi North - - N/A   Clear
5:44 AM 10.4 °F - 5.0 °F 79% 30.30 in 10.0 mi North - - N/A   Clear
6:04 AM 10.4 °F - 6.8 °F 85% 30.31 in 10.0 mi North - - N/A   Clear
6:24 AM 10.4 °F - 6.8 °F 85% 30.32 in 10.0 mi North - - N/A   Clear
6:44 AM 12.2 °F - 5.0 °F 73% 30.32 in 10.0 mi North - - N/A   Clear
7:04 AM 10.4 °F - 5.0 °F 79% 30.33 in 10.0 mi North - - N/A   Clear
7:24 AM 12.2 °F - 5.0 °F 73% 30.34 in 10.0 mi North - - N/A   Clear
7:44 AM 10.4 °F - 5.0 °F 79% 30.34 in 10.0 mi North - - N/A   Clear
8:04 AM 10.4 °F - 5.0 °F 79% 30.35 in 10.0 mi North - - N/A   Clear
8:24 AM 12.2 °F - 5.0 °F 73% 30.36 in 10.0 mi North - - N/A   Clear
8:44 AM 12.2 °F - 5.0 °F 73% 30.37 in 10.0 mi North - - N/A   Clear
9:04 AM 14.0 °F -1.4 °F 3.2 °F 62% 30.37 in 10.0 mi West 15.0 mph 19.6 mph N/A   Clear
9:24 AM 17.6 °F 2.7 °F 1.4 °F 49% 30.38 in 10.0 mi West 16.1 mph - N/A   Clear
9:44 AM 17.6 °F 4.3 °F 1.4 °F 49% 30.38 in 10.0 mi West 12.7 mph - N/A   Clear
10:04 AM 17.6 °F 5.0 °F 3.2 °F 53% 30.39 in 10.0 mi West 11.5 mph - N/A   Clear
10:24 AM 19.4 °F 9.5 °F 3.2 °F 49% 30.40 in 10.0 mi West 8.1 mph - N/A   Clear
10:44 AM 19.4 °F 10.4 °F 10.4 °F 68% 30.40 in 10.0 mi West 6.9 mph - N/A   Clear
11:04 AM 19.4 °F 11.5 °F 12.2 °F 74% 30.40 in 10.0 mi WSW 5.8 mph - N/A   Clear
11:24 AM 19.4 °F 11.5 °F 12.2 °F 74% 30.40 in 10.0 mi WSW 5.8 mph - N/A   Clear
11:44 AM 19.4 °F 14.3 °F 12.2 °F 74% 30.40 in 10.0 mi SW 3.5 mph - N/A   Clear
12:04 PM 19.4 °F 9.5 °F 12.2 °F 74% 30.40 in 10.0 mi SW 8.1 mph - N/A   Clear
12:24 PM 19.4 °F 10.4 °F 12.2 °F 74% 30.40 in 10.0 mi SW 6.9 mph - N/A   Clear
12:44 PM 19.4 °F 7.2 °F 12.2 °F 74% 30.40 in 10.0 mi SW 11.5 mph - N/A   Clear
1:04 PM 19.4 °F 5.0 °F 10.4 °F 68% 30.40 in 10.0 mi WSW 16.1 mph - N/A   Clear
1:24 PM 17.6 °F 1.3 °F 5.0 °F 58% 30.40 in 10.0 mi WSW 19.6 mph - N/A   Clear
1:44 PM 19.4 °F 2.5 °F 6.8 °F 58% 30.40 in 10.0 mi WSW 23.0 mph - N/A   Clear
2:04 PM 19.4 °F 2.1 °F 6.8 °F 58% 30.39 in 10.0 mi WSW 24.2 mph - N/A   Clear
2:24 PM 19.4 °F 2.8 °F 8.6 °F 63% 30.40 in 10.0 mi WSW 21.9 mph 28.8 mph N/A   Clear
2:44 PM 19.4 °F 0.5 °F 5.0 °F 54% 30.40 in 10.0 mi West 29.9 mph - N/A   Clear
3:04 PM 19.4 °F -1.1 °F 5.0 °F 54% 30.40 in 10.0 mi West 36.8 mph - N/A   Clear
3:24 PM 19.4 °F -0.0 °F 6.8 °F 58% 30.41 in 10.0 mi West 32.2 mph - N/A   Clear
3:44 PM 19.4 °F -0.0 °F 6.8 °F 58% 30.42 in 10.0 mi West 32.2 mph - N/A   Clear
4:04 PM 17.6 °F -2.8 °F 8.6 °F 68% 30.42 in 10.0 mi West 33.4 mph - N/A   Clear
4:24 PM 17.6 °F -4.3 °F 8.6 °F 68% 30.42 in 10.0 mi West 40.3 mph - N/A   Clear
4:44 PM 17.6 °F -4.3 °F 8.6 °F 68% 30.43 in 10.0 mi West 40.3 mph - N/A   Clear
5:04 PM 17.6 °F -4.7 °F 8.6 °F 68% 30.43 in 10.0 mi West 42.6 mph - N/A   Clear
5:24 PM 19.4 °F -2.0 °F 8.6 °F 63% 30.44 in 10.0 mi West 41.4 mph - N/A   Clear
5:44 PM 17.6 °F -4.1 °F 8.6 °F 68% 30.44 in 10.0 mi West 39.1 mph - N/A   Clear
6:04 PM 17.6 °F -2.8 °F 6.8 °F 63% 30.45 in 10.0 mi West 33.4 mph - N/A   Clear
6:24 PM 17.6 °F -4.1 °F 6.8 °F 63% 30.45 in 10.0 mi West 39.1 mph - N/A   Clear
6:44 PM 19.4 °F -1.6 °F 3.2 °F 49% 30.45 in 10.0 mi West 39.1 mph - N/A   Clear
7:04 PM 19.4 °F -0.8 °F 1.4 °F 46% 30.46 in 10.0 mi West 35.7 mph - N/A   Clear
7:24 PM 19.4 °F 0.5 °F -0.4 °F 42% 30.48 in 10.0 mi WNW 29.9 mph - N/A   Clear
7:44 PM 19.4 °F 1.4 °F -0.4 °F 42% 30.48 in 10.0 mi West 26.5 mph - N/A   Clear
8:04 PM 19.4 °F 1.1 °F -0.4 °F 42% 30.49 in 10.0 mi WNW 27.6 mph 34.5 mph N/A   Clear
8:24 PM 21.2 °F 4.9 °F -4.0 °F 33% 30.50 in 10.0 mi WNW 23.0 mph - N/A   Clear
8:44 PM 19.4 °F 1.1 °F -0.4 °F 42% 30.49 in 10.0 mi West 27.6 mph 32.2 mph N/A   Clear
9:04 PM 17.6 °F 0.5 °F 3.2 °F 53% 30.50 in 10.0 mi West 21.9 mph 27.6 mph N/A   Clear
9:24 PM 21.2 °F 5.6 °F -4.0 °F 33% 30.51 in 10.0 mi West 20.7 mph 27.6 mph N/A   Clear
9:44 PM 21.2 °F 6.4 °F -4.0 °F 33% 30.51 in 10.0 mi WNW 18.4 mph 23.0 mph N/A   Clear
10:04 PM 21.2 °F 8.3 °F -5.8 °F 30% 30.51 in 10.0 mi WNW 13.8 mph 23.0 mph N/A   Clear
10:24 PM 21.2 °F 6.0 °F -5.8 °F 30% 30.52 in 10.0 mi West 19.6 mph - N/A   Clear
10:44 PM 21.2 °F 6.0 °F -5.8 °F 30% 30.53 in 10.0 mi West 19.6 mph - N/A   Clear
11:04 PM 21.2 °F 7.8 °F -4.0 °F 33% 30.53 in 10.0 mi WSW 15.0 mph - N/A   Clear
11:24 PM 21.2 °F 6.8 °F -4.0 °F 33% 30.53 in 10.0 mi WSW 17.3 mph 23.0 mph N/A   Clear
11:44 PM 17.6 °F 2.7 °F 3.2 °F 53% 30.53 in 10.0 mi SSW 16.1 mph - N/A   Clear